Location: Newark
(45.2500°N, 7.5833°E)
Time: 06:00:23
(UTC+00:00)

First-Move - Pass Details

Date: 28 February 2020
Orbit: 576 x 669 km, 97.6° (Epoch: 07 April)

Event Time Altitude Azimuth Distance (km) Brightness Sun altitude
Rises 04:54:44 0° 21° (NNE) 3,022 ? -14.2°
Reaches altitude 10° 04:57:11 10° 31° (NNE) 2,098 ? -13.7°
Maximum altitude 05:01:19 32° 95° (E) 1,122 ? -13.0°
Drops below altitude 10° 05:05:22 10° 160° (SSE) 2,051 ? -12.3°
Sets 05:07:44 0° 170° (S) 2,942 ? -11.9°
